Location: �terpigny
(49.8910°N, 2.9249°E)
Time: 12:01:21
(UTC+00:00)

RS-44 - Pass Details

Date: 06 July 2022
Orbit: 1175 x 1510 km, 82.5° (Epoch: 09 August)

Event Time Altitude Azimuth Distance (km) Brightness Sun altitude
Rises 21:32:45 0° 234° (SW) 4,451 ? -11.1°
Reaches altitude 10° 21:36:05 10° 245° (WSW) 3,527 ? -11.4°
Maximum altitude 21:43:10 28° 302° (WNW) 2,487 ? -12.0°
Drops below altitude 10° 21:50:32 10° 358° (N) 3,673 ? -12.6°
Sets 21:54:07 0° 10° (N) 4,666 ? -12.8°
